Weather History for Haines, AK

Change the Weather History Date:

Sunday, October 23, 2011

  Actual Average Record
Temperature  
Mean Temperature 44 °F -  
Max Temperature 48 °F 41 °F 51 °F (1974)
Min Temperature 43 °F 34 °F 21 °F (2004)
Degree Days  
Heating Degree Days 20    
Moisture  
Dew Point 41 °F    
Average Humidity 86    
Maximum Humidity 93    
Minimum Humidity 80    
Precipitation  
Precipitation 0.00 in - - ()
Sea Level Pressure  
Sea Level Pressure 29.71 in    
Wind  
Wind Speed 10 mph (East)    
Max Wind Speed 14 mph    
Max Gust Speed 30 mph    
Visibility 10 miles    
Events Rain    
Averages and records for this station are not official NWS values.
T = Trace of Precipitation, MM = Missing Value Source: NWS Daily Summary

Daily Weather History Graph

Daily Weather History Graph

Search for Another Location

Airport:

Trip Planner

Search our weather history database for the weather conditions in past years. The results will help you decide how hot, cold, wet, or windy it might be!

Date:

Astronomy

Oct. 23, 2011 Rise Set
Actual Time 7:58 AM AKDT 5:32 PM AKDT
Civil Twilight 7:16 AM AKDT 6:15 PM AKDT
Nautical Twilight 6:29 AM AKDT 7:02 PM AKDT
Astronomical Twilight 5:41 AM AKDT 7:49 PM AKDT
Moon 3:29 AM AKDT (10/23) 4:03 PM AKDT (10/23)
Length of Visible Light 10h 58m
Length of Day
9h 34m
Waning Crescent, 13% of the Moon is Illuminated
Oct 23
Waning Crescent
Oct 26
New
Nov 2
First Quarter
Nov 10
Full
Nov 18
Last Quarter

Hourly Weather History & Observations

Time (AKDT) Temp. Windchill Dew Point Humidity Pressure Visibility Wind Dir Wind Speed Gust Speed Precip Events Conditions
12:54 AM 44.1 °F 39.0 °F 41.0 °F 89% 29.62 in 10.0 mi East 9.2 mph 21.9 mph 0.00 in Rain Light Rain
1:54 AM 44.1 °F 37.7 °F 41.0 °F 89% 29.64 in 10.0 mi ESE 12.7 mph 29.9 mph 0.00 in Rain Light Rain
2:10 AM 44.6 °F 40.2 °F 42.8 °F 93% 29.63 in 10.0 mi ESE 8.1 mph 18.4 mph 0.00 in   Overcast
2:54 AM 44.1 °F 39.0 °F 41.0 °F 89% 29.65 in 10.0 mi East 9.2 mph 20.7 mph 0.00 in   Overcast
3:06 AM 44.6 °F 38.4 °F 41.0 °F 87% 29.64 in 10.0 mi East 12.7 mph 24.2 mph N/A   Overcast
3:40 AM 44.6 °F 39.7 °F 41.0 °F 87% 29.64 in 10.0 mi ESE 9.2 mph 19.6 mph N/A   Overcast
3:54 AM 44.1 °F 38.1 °F 41.0 °F 89% 29.65 in 10.0 mi East 11.5 mph 20.7 mph N/A   Overcast
4:08 AM 44.6 °F 39.2 °F 41.0 °F 87% 29.64 in 10.0 mi ESE 10.4 mph 25.3 mph N/A   Overcast
4:35 AM 44.6 °F 38.4 °F 41.0 °F 87% 29.64 in 10.0 mi East 12.7 mph 23.0 mph N/A   Overcast
4:54 AM 44.1 °F 39.0 °F 41.0 °F 89% 29.65 in 10.0 mi East 9.2 mph 19.6 mph N/A   Overcast
5:09 AM 44.6 °F 39.7 °F 39.2 °F 81% 29.64 in 10.0 mi East 9.2 mph - N/A   Overcast
5:27 AM 44.6 °F 40.2 °F 39.2 °F 81% 29.64 in 10.0 mi East 8.1 mph - N/A   Overcast
5:44 AM 44.6 °F 38.8 °F 39.2 °F 81% 29.64 in 10.0 mi East 11.5 mph 19.6 mph N/A   Overcast
5:54 AM 44.1 °F 38.6 °F 39.9 °F 85% 29.65 in 10.0 mi East 10.4 mph 20.7 mph N/A   Overcast
6:54 AM 44.1 °F 37.4 °F 39.9 °F 85% 29.66 in 10.0 mi ENE 13.8 mph 24.2 mph 0.00 in Rain Light Rain
7:54 AM 43.0 °F 37.7 °F 39.9 °F 89% 29.68 in 10.0 mi ESE 9.2 mph 17.3 mph 0.00 in   Overcast
8:05 AM 44.6 °F 38.4 °F 39.2 °F 81% 29.67 in 10.0 mi East 12.7 mph 17.3 mph N/A   Overcast
8:54 AM 44.1 °F 38.6 °F 39.9 °F 85% 29.69 in 10.0 mi East 10.4 mph 24.2 mph N/A   Overcast
9:54 AM 45.0 °F 39.3 °F 41.0 °F 86% 29.70 in 10.0 mi East 11.5 mph 17.3 mph N/A   Overcast
10:54 AM 45.0 °F 40.1 °F 39.9 °F 82% 29.72 in 10.0 mi East 9.2 mph 18.4 mph 0.00 in   Overcast
11:26 AM 44.6 °F 38.8 °F 39.2 °F 81% 29.72 in 10.0 mi East 11.5 mph 20.7 mph N/A   Overcast
11:54 AM 45.0 °F 39.7 °F 39.9 °F 82% 29.73 in 10.0 mi East 10.4 mph 20.7 mph N/A   Overcast
12:54 PM 45.0 °F 39.3 °F 39.9 °F 82% 29.74 in 10.0 mi ESE 11.5 mph 27.6 mph N/A   Overcast
1:17 PM 46.4 °F 41.5 °F 41.0 °F 81% 29.73 in 10.0 mi East 10.4 mph 16.1 mph 0.00 in   Overcast
1:54 PM 46.0 °F 41.9 °F 41.0 °F 83% 29.74 in 10.0 mi East 8.1 mph 16.1 mph 0.00 in   Overcast
2:27 PM 46.4 °F 41.5 °F 41.0 °F 81% 29.73 in 10.0 mi East 10.4 mph 19.6 mph N/A   Overcast
2:54 PM 46.9 °F - 41.0 °F 80% 29.75 in 10.0 mi East 13.8 mph 23.0 mph N/A   Overcast
3:36 PM 46.4 °F 40.4 °F 41.0 °F 81% 29.74 in 10.0 mi ESE 13.8 mph 21.9 mph N/A   Overcast
3:54 PM 46.0 °F 39.9 °F 41.0 °F 83% 29.75 in 10.0 mi ESE 13.8 mph 19.6 mph N/A   Overcast
4:54 PM 45.0 °F 40.6 °F 41.0 °F 86% 29.76 in 10.0 mi ESE 8.1 mph 21.9 mph N/A   Overcast
5:54 PM 45.0 °F 39.7 °F 41.0 °F 86% 29.78 in 10.0 mi ESE 10.4 mph 18.4 mph N/A   Overcast
6:35 PM 44.6 °F 39.7 °F 41.0 °F 87% 29.78 in 10.0 mi East 9.2 mph 25.3 mph N/A   Overcast
6:54 PM 44.1 °F 39.5 °F 41.0 °F 89% 29.79 in 10.0 mi ESE 8.1 mph - N/A   Overcast
7:54 PM 44.1 °F 39.0 °F 41.0 °F 89% 29.80 in 10.0 mi East 9.2 mph 16.1 mph N/A   Overcast
8:33 PM 44.6 °F 40.7 °F 41.0 °F 87% 29.80 in 10.0 mi ESE 6.9 mph - N/A   Overcast
8:54 PM 44.1 °F 39.5 °F 41.0 °F 89% 29.81 in 10.0 mi East 8.1 mph - N/A   Overcast
9:54 PM 44.1 °F 40.8 °F 41.0 °F 89% 29.83 in 10.0 mi East 5.8 mph - N/A   Overcast
10:54 PM 44.1 °F 38.6 °F 41.0 °F 89% 29.84 in 10.0 mi East 10.4 mph - N/A   Overcast
11:54 PM 44.1 °F 39.0 °F 41.0 °F 89% 29.85 in 10.0 mi East 9.2 mph - N/A   Overcast